Powrót do katalogu

COSMOS 970 DEB

AktywnyLEO
NORAD 13505·DEBRIS·🇷🇺 Russia

Wystrzelony Dec 21, 1977 z Baikonur Cosmodrome

Loading…

Następne Przeloty (najbliższe 24 godziny)

TLE

ŚwieżeSource: Space-Track

Epoka: Sep 14, 2026, 09:40 UTC

1 13505U 77121BC  26257.40321631  .00000832  00000-0  11925-2 0  9997
2 13505  65.3540 241.3593 0010279  48.7189 103.6104 13.61501188704237

Śledź COSMOS 970 DEB w czasie rzeczywistym z AllMySat

Download on the App Store